Total_Precipitation_Accumulation
0.02 0.02 0.05 0.05 0.05 0.10 0.09 0.12 0.19 0.26 0.22 0.28 0.41 0.54 0.77 0.93 1.17 1.38 1.41 1.35 1.40 1.62 1.90 2.20 2.57 2.91 3.13 3.29 3.39 3.70 3.93 3.67 3.20 2.79 2.30 2.11 2.06 1.86 1.63 1.49 1.37 1.45 1.41 1.59
0.02 0.03 0.04 0.03 0.03 0.06 0.09 0.11 0.19 0.24 0.20 0.25 0.40 0.68 0.86 0.95 0.98 1.10 1.22 1.14 1.18 1.44 1.49 1.58 1.77 2.09 2.18 2.41 2.72 3.09 3.33 3.18 2.65 2.43 2.23 2.10 2.04 1.89 1.83 1.68 1.60 1.42 1.40 1.49
0.01 0.03 0.03 0.02 0.02 0.04 0.09 0.10 0.13 0.18 0.18 0.27 0.42 0.94 1.06 0.94 0.85 0.78 0.92 0.98 0.94 1.08 1.21 1.25 1.23 1.39 1.71 2.23 2.42 2.36 2.60 2.79 2.53 2.42 2.34 2.23 2.16 1.96 2.00 1.92 1.78 1.43 1.29 1.32
0.01 0.02 0.01 0.02 0.03 0.03 0.08 0.08 0.08 0.10 0.15 0.41 0.52 0.99 1.09 0.95 0.94 0.76 0.73 0.77 0.71 0.66 0.82 0.98 0.97 1.06 1.25 1.58 1.86 2.08 2.32 2.49 2.43 2.32 2.11 1.95 1.77 1.67 1.67 1.70 1.71 1.57 1.45 1.30
0.01 0.01 0.01 0.02 0.03 0.03 0.04 0.04 0.06 0.10 0.18 0.38 0.51 0.87 1.07 0.89 1.02 0.79 0.52 0.41 0.37 0.37 0.48 0.66 0.77 0.86 0.89 1.09 1.49 1.92 2.26 2.50 2.39 2.09 1.92 1.92 1.81 1.77 1.69 1.62 1.82 1.71 1.62 1.43
0.01 0.01 0.02 0.02 0.02 0.02 0.03 0.05 0.13 0.23 0.38 0.74 0.71 0.74 1.01 0.78 0.59 0.46 0.35 0.27 0.27 0.30 0.35 0.45 0.53 0.65 0.77 0.90 1.16 1.52 1.82 2.07 2.09 1.95 1.86 1.90 1.92 1.88 1.75 1.57 1.57 1.49 1.49 1.45
0.06 0.06 0.03 0.02 0.02 0.03 0.03 0.05 0.22 0.46 0.73 0.91 0.58 0.75 1.09 0.66 0.48 0.37 0.31 0.27 0.25 0.23 0.30 0.42 0.49 0.58 0.65 0.70 0.88 1.16 1.36 1.52 1.73 1.83 1.83 1.80 1.90 1.90 1.70 1.51 1.47 1.49 1.36 1.31
0.09 0.15 0.06 0.03 0.02 0.02 0.03 0.04 0.10 0.19 0.33 0.51 0.58 1.19 1.04 0.49 0.34 0.29 0.25 0.25 0.22 0.21 0.25 0.39 0.49 0.52 0.52 0.54 0.71 0.88 1.05 1.26 1.50 1.65 1.71 1.69 1.64 1.52 1.49 1.60 1.49 1.45 1.44 1.39
0.03 0.04 0.03 0.02 0.02 0.02 0.03 0.04 0.06 0.08 0.12 0.34 0.67 0.85 0.58 0.31 0.29 0.31 0.28 0.28 0.26 0.29 0.36 0.41 0.52 0.54 0.44 0.46 0.56 0.64 0.84 1.03 1.17 1.38 1.50 1.44 1.48 1.39 1.39 1.46 1.43 1.38 1.49 1.49
0.02 0.02 0.02 0.02 0.02 0.03 0.03 0.03 0.04 0.04 0.08 0.24 0.51 0.75 0.78 0.51 0.39 0.34 0.34 0.35 0.34 0.37 0.48 0.51 0.50 0.53 0.46 0.45 0.55 0.64 0.80 0.91 0.98 1.15 1.23 1.16 1.36 1.41 1.52 1.49 1.40 1.34 1.34 1.38
0.02 0.01 0.01 0.02 0.03 0.04 0.05 0.04 0.03 0.04 0.05 0.12 0.36 0.54 0.58 0.54 0.49 0.37 0.33 0.39 0.46 0.45 0.55 0.54 0.50 0.53 0.50 0.50 0.56 0.62 0.78 0.88 0.93 1.07 1.12 1.18 1.26 1.33 1.40 1.43 1.43 1.42 1.39 1.40
0.02 0.02 0.01 0.03 0.05 0.04 0.07 0.08 0.08 0.07 0.06 0.07 0.16 0.30 0.32 0.36 0.43 0.37 0.37 0.46 0.51 0.38 0.41 0.49 0.52 0.59 0.51 0.52 0.55 0.60 0.71 0.80 0.87 1.04 1.18 1.22 1.33 1.36 1.34 1.36 1.56 1.59 1.56 1.53
0.02 0.02 0.02 0.07 0.13 0.10 0.07 0.07 0.08 0.08 0.07 0.07 0.12 0.26 0.25 0.26 0.38 0.37 0.43 0.51 0.50 0.48 0.43 0.53 0.61 0.60 0.54 0.54 0.59 0.62 0.70 0.78 0.85 0.96 1.10 1.26 1.33 1.38 1.46 1.59 1.76 1.87 1.79 1.74
0.03 0.02 0.02 0.07 0.16 0.21 0.16 0.09 0.08 0.07 0.07 0.06 0.10 0.19 0.25 0.33 0.40 0.42 0.46 0.53 0.52 0.51 0.42 0.47 0.66 0.70 0.60 0.56 0.60 0.64 0.75 0.84 0.95 1.13 1.26 1.36 1.54 1.67 1.75 1.75 1.84 1.87 1.88 1.92
0.03 0.02 0.02 0.03 0.07 0.11 0.12 0.09 0.08 0.07 0.07 0.07 0.10 0.16 0.25 0.36 0.42 0.48 0.51 0.53 0.53 0.49 0.48 0.58 0.72 0.86 0.84 0.78 0.71 0.75 0.91 1.06 1.26 1.46 1.48 1.51 1.61 1.73 1.88 2.05 2.10 2.10 2.09 2.04
0.05 0.04 0.05 0.05 0.07 0.09 0.07 0.07 0.07 0.06 0.06 0.07 0.11 0.18 0.28 0.38 0.42 0.41 0.45 0.44 0.48 0.56 0.58 0.63 0.80 0.97 1.07 1.09 1.08 1.12 1.25 1.47 1.72 1.96 2.03 2.11 2.19 2.27 2.34 2.40 2.40 2.44 2.41 2.33
0.14 0.14 0.14 0.11 0.10 0.11 0.09 0.09 0.08 0.08 0.10 0.11 0.16 0.24 0.37 0.49 0.46 0.52 0.56 0.53 0.61 0.68 0.75 0.78 0.92 1.04 1.18 1.22 1.28 1.43 1.59 1.78 1.97 2.09 2.16 2.26 2.34 2.45 2.54 2.57 2.57 2.47 2.42 2.36
0.34 0.30 0.24 0.19 0.21 0.22 0.14 0.16 0.18 0.20 0.22 0.26 0.28 0.33 0.41 0.51 0.53 0.56 0.59 0.59 0.62 0.74 0.88 0.89 0.99 1.09 1.17 1.30 1.45 1.60 1.68 1.81 2.09 2.23 2.27 2.27 2.30 2.39 2.53 2.65 2.56 2.39 2.33 2.29
0.42 0.48 0.43 0.32 0.28 0.29 0.28 0.26 0.28 0.36 0.43 0.40 0.54 0.61 0.56 0.58 0.62 0.65 0.65 0.80 0.81 0.81 0.90 0.95 1.07 1.16 1.27 1.32 1.36 1.36 1.44 1.59 1.79 1.98 2.09 2.07 2.15 2.31 2.43 2.47 2.45 2.42 2.34 2.17
0.34 0.38 0.44 0.46 0.47 0.45 0.43 0.46 0.37 0.41 0.72 0.71 0.78 0.86 0.81 0.84 1.00 0.92 0.71 0.71 0.78 0.84 0.91 1.01 1.14 1.21 1.21 1.23 1.24 1.29 1.39 1.58 1.77 1.95 2.10 2.22 2.29 2.39 2.40 2.45 2.55 2.53 2.44 2.37
0.49 0.51 0.49 0.50 0.55 0.55 0.49 0.46 0.47 0.77 1.03 1.01 1.08 1.11 1.02 1.05 1.08 0.99 0.84 0.79 0.77 0.84 0.91 1.00 1.14 1.26 1.25 1.26 1.40 1.51 1.62 1.77 1.91 1.97 2.04 2.14 2.25 2.37 2.51 2.66 2.62 2.59 2.52 2.42
0.71 0.71 0.69 0.72 0.90 1.02 0.77 0.69 0.89 1.05 0.82 0.87 1.04 1.24 1.26 1.20 1.12 1.02 0.94 0.86 0.78 0.73 0.81 0.97 1.08 1.21 1.34 1.45 1.59 1.71 1.74 1.79 1.90 2.05 2.12 2.15 2.26 2.28 2.34 2.41 2.38 2.35 2.36 2.31
0.82 0.93 1.02 1.05 1.21 1.10 0.94 0.96 0.90 0.96 1.09 1.14 1.23 1.42 1.43 1.29 1.16 1.15 1.08 0.96 0.85 0.83 0.88 0.96 1.05 1.17 1.28 1.44 1.60 1.74 1.83 1.90 1.97 2.04 2.13 2.24 2.27 2.29 2.35 2.44 2.46 2.38 2.30 2.24
0.86 0.76 0.97 1.26 1.40 1.23 1.07 1.04 1.00 1.05 1.23 1.29 1.25 1.26 1.25 1.18 1.12 1.24 1.26 1.11 1.07 1.07 1.06 1.06 1.11 1.18 1.27 1.37 1.52 1.69 1.81 1.85 1.96 2.02 2.05 2.16 2.27 2.37 2.44 2.44 2.37 2.23 2.07 1.99
0.89 0.93 1.10 1.49 1.71 1.64 1.45 1.31 1.21 1.21 1.18 1.25 1.18 1.20 1.17 1.15 1.11 1.18 1.30 1.35 1.28 1.17 1.10 1.12 1.18 1.24 1.27 1.34 1.42 1.64 1.83 1.89 1.91 2.02 2.06 2.03 2.04 2.09 2.16 2.20 2.18 2.05 1.92 1.81
0.98 1.17 1.46 1.84 1.87 1.97 1.85 1.53 1.34 1.39 1.34 1.28 1.24 1.31 1.34 1.28 1.19 1.20 1.32 1.37 1.34 1.23 1.16 1.17 1.18 1.21 1.26 1.35 1.48 1.57 1.80 2.01 2.05 2.03 1.92 1.82 1.71 1.68 1.69 1.69 1.75 1.85 1.75 1.71